Location: Aragüita
(10.0436°N, 67.8028°W)
Time: 14:08:44
(UTC+00:00)

Cosmos 1862 Rocket - Pass Details

Date: 22 January 2026
Orbit: 596 x 627 km, 82.5° (Epoch: 8 February)

Event Time Altitude Azimuth Distance (km) Brightness Sun altitude
Rises 10:22:58 0° 356° (N) 2,827 6.7 -8.0°
Reaches altitude 10° 10:25:10 10° 356° (N) 1,925 5.9 -7.5°
Maximum altitude 10:29:25 89° 264° (W) 599 3.5 -6.5°
Drops below altitude 10° 10:33:41 10° 176° (S) 1,928 6.4 -5.5°
Sets 10:35:53 0° 176° (S) 2,832 7.3 -5.0°
